Time,TemperatureF,DewpointF,PressureIn,WindDirection,WindDirectionDegrees,WindSpeedMPH,WindSpeedGustMPH,Humidity,HourlyPrecipIn,Conditions,Clouds,dailyrainin,SoftwareType,DateUTC
2013-12-07 00:09:00,46.8,44.6,29.93,WSW,247,0.0,13.0,92,0.20,,,-99.99,Weather View 32 v60,2013-12-07 08:09:00,
2013-12-07 00:19:00,46.6,44.7,29.93,WSW,240,0.0,13.0,93,0.20,,,-99.99,Weather View 32 v60,2013-12-07 08:19:00,
2013-12-07 00:29:00,46.6,44.9,29.93,West,262,3.0,13.0,94,0.16,,,-99.99,Weather View 32 v60,2013-12-07 08:29:00,
2013-12-07 00:39:00,46.4,45.0,29.93,WSW,246,0.0,13.0,95,0.12,,,-99.99,Weather View 32 v60,2013-12-07 08:39:00,
2013-12-07 00:49:00,46.2,45.1,29.93,WNW,286,0.0,10.0,96,0.20,,,-99.99,Weather View 32 v60,2013-12-07 08:49:00,
2013-12-07 01:00:00,46.4,45.3,29.93,SW,219,5.0,9.0,96,0.16,,,-99.99,Weather View 32 v60,2013-12-07 09:00:00,
2013-12-07 01:09:00,46.4,45.6,29.93,SW,234,3.0,9.0,97,0.16,,,-99.99,Weather View 32 v60,2013-12-07 09:09:00,
2013-12-07 01:19:00,46.2,45.4,29.93,SW,235,6.0,9.0,97,0.12,,,-99.99,Weather View 32 v60,2013-12-07 09:19:00,
2013-12-07 01:29:00,46.2,45.1,29.93,SW,217,7.0,9.0,96,0.12,,,-99.99,Weather View 32 v60,2013-12-07 09:29:00,
2013-12-07 01:39:00,46.4,45.3,29.93,WSW,248,3.0,10.0,96,0.08,,,-99.99,Weather View 32 v60,2013-12-07 09:39:00,
2013-12-07 01:49:00,46.2,45.1,29.93,SW,236,4.0,10.0,96,0.00,,,-99.99,Weather View 32 v60,2013-12-07 09:49:00,
2013-12-07 01:59:00,46.2,45.4,29.93,West,279,3.0,10.0,97,0.00,,,-99.99,Weather View 32 v60,2013-12-07 09:59:00,
2013-12-07 02:09:00,46.2,45.4,29.93,WSW,238,0.0,10.0,97,0.00,,,-99.99,Weather View 32 v60,2013-12-07 10:09:00,
2013-12-07 02:19:00,45.9,44.8,29.93,West,273,0.0,11.0,96,0.00,,,-99.99,Weather View 32 v60,2013-12-07 10:19:00,
2013-12-07 02:29:00,45.5,44.1,29.93,WSW,238,0.0,11.0,95,0.00,,,-99.99,Weather View 32 v60,2013-12-07 10:29:00,
2013-12-07 02:39:00,45.1,43.2,29.93,SW,224,0.0,11.0,93,0.00,,,-99.99,Weather View 32 v60,2013-12-07 10:39:00,
2013-12-07 02:49:00,44.6,42.4,29.93,SW,222,0.0,11.0,92,0.00,,,-99.99,Weather View 32 v60,2013-12-07 10:49:00,
2013-12-07 02:59:00,44.4,41.4,29.96,WNW,289,0.0,11.0,89,0.00,,,-99.99,Weather View 32 v60,2013-12-07 10:59:00,
2013-12-07 03:09:00,43.7,40.1,29.96,WSW,247,0.0,11.0,87,0.00,,,-99.99,Weather View 32 v60,2013-12-07 11:09:00,
2013-12-07 03:19:00,43.5,39.9,29.96,West,260,0.0,9.0,87,0.00,,,-99.99,Weather View 32 v60,2013-12-07 11:19:00,
2013-12-07 03:29:00,42.8,39.2,29.96,SW,219,0.0,8.0,87,0.00,,,-99.99,Weather View 32 v60,2013-12-07 11:29:00,
2013-12-07 03:39:00,42.3,39.0,29.96,WSW,249,0.0,7.0,88,0.00,,,-99.99,Weather View 32 v60,2013-12-07 11:39:00,
2013-12-07 03:49:00,41.9,38.6,29.99,WSW,254,0.0,7.0,88,0.00,,,-99.99,Weather View 32 v60,2013-12-07 11:49:00,
2013-12-07 03:59:00,41.5,38.5,29.99,WSW,251,0.0,7.0,89,0.00,,,-99.99,Weather View 32 v60,2013-12-07 11:59:00,
2013-12-07 04:09:00,41.5,38.2,29.99,SW,222,0.0,7.0,88,0.00,,,-99.99,Weather View 32 v60,2013-12-07 12:09:00,
2013-12-07 04:19:00,41.4,37.8,29.99,SSW,197,0.0,5.0,87,0.00,,,-99.99,Weather View 32 v60,2013-12-07 12:19:00,
2013-12-07 04:29:00,41.2,37.3,29.99,WSW,243,0.0,5.0,86,0.00,,,-99.99,Weather View 32 v60,2013-12-07 12:29:00,
2013-12-07 04:39:00,41.0,36.5,29.99,West,271,0.0,5.0,84,0.00,,,-99.99,Weather View 32 v60,2013-12-07 12:39:00,
2013-12-07 04:49:00,41.0,34.7,29.99,NW,307,0.0,5.0,78,0.00,,,-99.99,Weather View 32 v60,2013-12-07 12:49:00,
2013-12-07 04:59:00,40.6,34.0,29.99,NNE,23,0.0,4.0,77,0.00,,,-99.99,Weather View 32 v60,2013-12-07 12:59:00,
2013-12-07 05:09:00,39.9,33.3,29.99,NE,48,0.0,4.0,77,0.00,,,-99.99,Weather View 32 v60,2013-12-07 13:09:00,
2013-12-07 05:19:00,39.2,33.5,30.02,NE,39,0.0,4.0,80,0.00,,,-99.99,Weather View 32 v60,2013-12-07 13:19:00,
2013-12-07 05:29:00,38.8,33.8,30.02,NNE,29,0.0,4.0,82,0.00,,,-99.99,Weather View 32 v60,2013-12-07 13:29:00,
2013-12-07 05:39:00,38.5,33.5,30.02,NE,35,0.0,3.0,82,0.00,,,-99.99,Weather View 32 v60,2013-12-07 13:39:00,
2013-12-07 05:49:00,37.9,32.9,30.02,NE,35,0.0,3.0,82,0.00,,,-99.99,Weather View 32 v60,2013-12-07 13:49:00,
2013-12-07 05:59:00,37.4,32.7,30.02,NE,35,0.0,0.0,83,0.00,,,-99.99,Weather View 32 v60,2013-12-07 13:59:00,
2013-12-07 06:09:00,36.9,32.5,30.02,ESE,108,0.0,0.0,84,0.00,,,-99.99,Weather View 32 v60,2013-12-07 14:09:00,
2013-12-07 06:19:00,36.3,32.2,30.02,ESE,109,0.0,0.0,85,0.00,,,-99.99,Weather View 32 v60,2013-12-07 14:19:00,
2013-12-07 06:29:00,36.0,32.2,30.02,South,176,0.0,0.0,86,0.00,,,-99.99,Weather View 32 v60,2013-12-07 14:29:00,
2013-12-07 06:39:00,35.6,32.1,30.02,SW,226,3.0,4.0,87,0.00,,,-99.99,Weather View 32 v60,2013-12-07 14:39:00,
2013-12-07 06:49:00,36.3,32.2,30.05,SW,224,0.0,6.0,85,0.00,,,-99.99,Weather View 32 v60,2013-12-07 14:49:00,
2013-12-07 06:59:00,37.2,30.7,30.05,WSW,256,3.0,8.0,77,0.00,,,-99.99,Weather View 32 v60,2013-12-07 14:59:00,
2013-12-07 07:09:00,38.5,28.5,30.05,NW,325,0.0,12.0,67,0.00,,,-99.99,Weather View 32 v60,2013-12-07 15:09:00,
2013-12-07 07:19:00,38.8,26.9,30.05,WSW,256,0.0,12.0,62,0.00,,,-99.99,Weather View 32 v60,2013-12-07 15:19:00,
2013-12-07 07:29:00,39.2,26.5,30.05,West,279,0.0,12.0,60,0.00,,,-99.99,Weather View 32 v60,2013-12-07 15:29:00,
2013-12-07 07:39:00,39.0,26.7,30.05,WSW,250,0.0,12.0,61,0.00,,,-99.99,Weather View 32 v60,2013-12-07 15:39:00,
2013-12-07 07:49:00,38.8,27.3,30.05,South,187,0.0,12.0,63,0.00,,,-99.99,Weather View 32 v60,2013-12-07 15:49:00,
2013-12-07 07:59:00,39.2,27.3,30.08,SW,224,0.0,12.0,62,0.00,,,-99.99,Weather View 32 v60,2013-12-07 15:59:00,
2013-12-07 08:09:00,39.4,27.0,30.08,West,271,0.0,10.0,61,0.00,,,-99.99,Weather View 32 v60,2013-12-07 16:09:00,
2013-12-07 08:19:00,40.1,26.9,30.08,SW,231,0.0,6.0,59,0.00,,,-99.99,Weather View 32 v60,2013-12-07 16:19:00,
2013-12-07 08:29:00,40.6,26.6,30.08,SW,218,0.0,7.0,57,0.00,,,-99.99,Weather View 32 v60,2013-12-07 16:29:00,
2013-12-07 08:39:00,41.4,27.3,30.08,WSW,240,0.0,7.0,57,0.00,,,-99.99,Weather View 32 v60,2013-12-07 16:39:00,
2013-12-07 08:49:00,42.1,26.2,30.11,SW,236,0.0,7.0,53,0.00,,,-99.99,Weather View 32 v60,2013-12-07 16:49:00,
2013-12-07 08:59:00,42.8,25.9,30.11,West,265,5.0,9.0,51,0.00,,,-99.99,Weather View 32 v60,2013-12-07 16:59:00,
2013-12-07 09:09:00,43.2,26.7,30.11,West,266,0.0,9.0,52,0.00,,,-99.99,Weather View 32 v60,2013-12-07 17:09:00,
2013-12-07 09:19:00,43.5,26.1,30.11,SW,228,0.0,9.0,50,0.00,,,-99.99,Weather View 32 v60,2013-12-07 17:19:00,
2013-12-07 09:29:00,44.1,26.1,30.11,SW,230,0.0,9.0,49,0.00,,,-99.99,Weather View 32 v60,2013-12-07 17:29:00,
2013-12-07 09:39:00,44.2,25.3,30.11,WNW,295,5.0,11.0,47,0.00,,,-99.99,Weather View 32 v60,2013-12-07 17:39:00,
2013-12-07 09:49:00,44.6,24.5,30.11,SW,231,5.0,11.0,45,0.00,,,-99.99,Weather View 32 v60,2013-12-07 17:49:00,
2013-12-07 09:59:00,44.6,23.5,30.11,WNW,299,4.0,12.0,43,0.00,,,-99.99,Weather View 32 v60,2013-12-07 17:59:00,
2013-12-07 10:05:00,44.6,23.5,30.11,WNW,299,4.0,12.0,43,0.00,,,-99.99,Weather View 32 v60,2013-12-07 18:05:00,
2013-12-07 10:19:00,0.0,0.0,30.11,WNW,297,4.0,13.0,0,0.00,,,-99.99,Weather View 32 v60,2013-12-07 18:19:00,
2013-12-07 10:29:00,46.2,23.2,30.11,SSE,167,0.0,13.0,40,0.00,,,-99.99,Weather View 32 v60,2013-12-07 18:29:00,
2013-12-07 10:39:00,46.8,23.1,30.11,WSW,243,3.0,13.0,39,0.00,,,-99.99,Weather View 32 v60,2013-12-07 18:39:00,
2013-12-07 10:49:00,47.1,22.8,30.11,WNW,285,0.0,13.0,38,0.00,,,-99.99,Weather View 32 v60,2013-12-07 18:49:00,
2013-12-07 10:59:00,47.3,22.9,30.11,SW,236,0.0,13.0,38,0.00,,,-99.99,Weather View 32 v60,2013-12-07 18:59:00,
2013-12-07 11:05:00,47.3,22.9,30.11,SW,236,0.0,13.0,38,0.00,,,-99.99,Weather View 32 v60,2013-12-07 19:05:00,
2013-12-07 11:19:00,48.0,22.9,30.11,WSW,254,4.0,13.0,37,0.00,,,-99.99,Weather View 32 v60,2013-12-07 19:19:00,
2013-12-07 11:29:00,47.8,22.8,30.11,WSW,237,5.0,13.0,37,0.00,,,-99.99,Weather View 32 v60,2013-12-07 19:29:00,
2013-12-07 11:39:00,47.7,22.6,30.11,WNW,291,7.0,13.0,37,0.00,,,-99.99,Weather View 32 v60,2013-12-07 19:39:00,
2013-12-07 11:49:00,48.4,23.3,30.11,North,351,0.0,13.0,37,0.00,,,-99.99,Weather View 32 v60,2013-12-07 19:49:00,
2013-12-07 11:59:00,48.6,22.8,30.11,West,264,5.0,13.0,36,0.00,,,-99.99,Weather View 32 v60,2013-12-07 19:59:00,
2013-12-07 12:06:00,48.6,22.8,30.11,West,264,5.0,13.0,36,0.00,,,-99.99,Weather View 32 v60,2013-12-07 20:06:00,
2013-12-07 12:19:00,48.9,22.4,30.11,North,351,5.0,13.0,35,0.00,,,-99.99,Weather View 32 v60,2013-12-07 20:19:00,
2013-12-07 12:29:00,48.7,22.3,30.11,West,269,4.0,13.0,35,0.00,,,-99.99,Weather View 32 v60,2013-12-07 20:29:00,
2013-12-07 12:39:00,48.7,22.3,30.11,West,269,5.0,13.0,35,0.00,,,-99.99,Weather View 32 v60,2013-12-07 20:39:00,
2013-12-07 12:49:00,48.9,21.7,30.11,West,278,7.0,13.0,34,0.00,,,-99.99,Weather View 32 v60,2013-12-07 20:49:00,
2013-12-07 12:59:00,49.1,20.5,30.08,West,268,12.0,13.0,32,0.00,,,-99.99,Weather View 32 v60,2013-12-07 20:59:00,
2013-12-07 13:06:00,49.1,20.5,30.08,West,268,12.0,13.0,32,0.00,,,-99.99,Weather View 32 v60,2013-12-07 21:06:00,
2013-12-07 13:19:00,48.9,21.7,30.08,NW,307,0.0,15.0,34,0.00,,,-99.99,Weather View 32 v60,2013-12-07 21:19:00,
2013-12-07 13:29:00,49.3,20.6,30.11,WNW,301,4.0,15.0,32,0.00,,,-99.99,Weather View 32 v60,2013-12-07 21:29:00,
2013-12-07 13:39:00,49.3,21.3,30.11,NNW,339,7.0,15.0,33,0.00,,,-99.99,Weather View 32 v60,2013-12-07 21:39:00,
2013-12-07 13:49:00,49.5,21.5,30.08,NNW,330,0.0,15.0,33,0.00,,,-99.99,Weather View 32 v60,2013-12-07 21:49:00,
2013-12-07 13:59:00,50.2,22.8,30.08,NNW,340,0.0,15.0,34,0.00,,,-99.99,Weather View 32 v60,2013-12-07 21:59:00,
2013-12-07 14:07:00,50.2,22.8,30.08,NNW,340,0.0,15.0,34,0.00,,,-99.99,Weather View 32 v60,2013-12-07 22:07:00,
2013-12-07 14:19:00,50.7,23.3,30.11,NNW,341,0.0,12.0,34,0.00,,,-99.99,Weather View 32 v60,2013-12-07 22:19:00,
2013-12-07 14:29:00,49.8,21.8,30.11,WNW,289,0.0,11.0,33,0.00,,,-99.99,Weather View 32 v60,2013-12-07 22:29:00,
2013-12-07 14:39:00,50.4,21.6,30.11,West,267,0.0,12.0,32,0.00,,,-99.99,Weather View 32 v60,2013-12-07 22:39:00,
2013-12-07 14:49:00,51.3,22.4,30.11,NNW,341,0.0,12.0,32,0.00,,,-99.99,Weather View 32 v60,2013-12-07 22:49:00,
2013-12-07 14:59:00,50.4,21.6,30.11,NNW,331,0.0,12.0,32,0.00,,,-99.99,Weather View 32 v60,2013-12-07 22:59:00,
2013-12-07 15:07:00,50.4,21.6,30.11,NNW,331,0.0,12.0,32,0.00,,,-99.99,Weather View 32 v60,2013-12-07 23:07:00,
2013-12-07 15:19:00,49.3,20.6,30.11,West,261,0.0,12.0,32,0.00,,,-99.99,Weather View 32 v60,2013-12-07 23:19:00,
2013-12-07 15:29:00,48.6,20.7,30.14,North,9,4.0,12.0,33,0.00,,,-99.99,Weather View 32 v60,2013-12-07 23:29:00,
2013-12-07 15:39:00,48.0,20.2,30.14,NNW,329,3.0,11.0,33,0.00,,,-99.99,Weather View 32 v60,2013-12-07 23:39:00,
2013-12-07 15:49:00,47.3,20.3,30.14,West,279,0.0,11.0,34,0.00,,,-99.99,Weather View 32 v60,2013-12-07 23:49:00,
2013-12-07 15:59:00,47.1,20.1,30.14,West,260,0.0,10.0,34,0.00,,,-99.99,Weather View 32 v60,2013-12-07 23:59:00,
2013-12-07 16:08:00,47.1,20.1,30.14,West,260,0.0,10.0,34,0.00,,,-99.99,Weather View 32 v60,2013-12-08 00:08:00,
2013-12-07 16:19:00,46.6,20.4,30.14,WNW,288,0.0,10.0,35,0.00,,,-99.99,Weather View 32 v60,2013-12-08 00:19:00,
2013-12-07 16:29:00,46.0,20.5,30.17,NW,311,0.0,10.0,36,0.00,,,-99.99,Weather View 32 v60,2013-12-08 00:29:00,
2013-12-07 16:39:00,45.7,20.9,30.17,WSW,253,0.0,10.0,37,0.00,,,-99.99,Weather View 32 v60,2013-12-08 00:39:00,
2013-12-07 16:49:00,45.1,20.4,30.14,NW,325,0.0,7.0,37,0.00,,,-99.99,Weather View 32 v60,2013-12-08 00:49:00,
2013-12-07 16:59:00,44.6,20.5,30.17,West,273,0.0,7.0,38,0.00,,,-99.99,Weather View 32 v60,2013-12-08 00:59:00,
2013-12-07 17:08:00,44.6,20.5,30.17,West,273,0.0,7.0,38,0.00,,,-99.99,Weather View 32 v60,2013-12-08 01:08:00,
2013-12-07 17:19:00,43.7,19.7,30.17,West,275,0.0,7.0,38,0.00,,,-99.99,Weather View 32 v60,2013-12-08 01:19:00,
2013-12-07 17:29:00,43.3,20.0,30.17,WNW,300,0.0,0.0,39,0.00,,,-99.99,Weather View 32 v60,2013-12-08 01:29:00,
2013-12-07 17:39:00,43.0,19.7,30.17,WNW,290,0.0,0.0,39,0.00,,,-99.99,Weather View 32 v60,2013-12-08 01:39:00,
2013-12-07 17:49:00,42.4,19.2,30.17,SW,222,0.0,0.0,39,0.00,,,-99.99,Weather View 32 v60,2013-12-08 01:49:00,
2013-12-07 17:59:00,41.7,19.7,30.17,WSW,239,0.0,0.0,41,0.00,,,-99.99,Weather View 32 v60,2013-12-08 01:59:00,
2013-12-07 18:09:00,41.7,19.7,30.17,WSW,239,0.0,0.0,41,0.00,,,-99.99,Weather View 32 v60,2013-12-08 02:09:00,
2013-12-07 18:19:00,41.0,22.3,30.17,WSW,245,0.0,0.0,47,0.00,,,-99.99,Weather View 32 v60,2013-12-08 02:19:00,
2013-12-07 18:29:00,40.6,22.5,30.20,WNW,291,0.0,0.0,48,0.00,,,-99.99,Weather View 32 v60,2013-12-08 02:29:00,
2013-12-07 18:39:00,40.5,23.3,30.20,SW,219,0.0,0.0,50,0.00,,,-99.99,Weather View 32 v60,2013-12-08 02:39:00,
2013-12-07 18:49:00,39.9,22.8,30.20,WNW,298,0.0,0.0,50,0.00,,,-99.99,Weather View 32 v60,2013-12-08 02:49:00,
2013-12-07 18:59:00,39.4,22.7,30.20,NW,323,0.0,0.0,51,0.00,,,-99.99,Weather View 32 v60,2013-12-08 02:59:00,
2013-12-07 19:09:00,39.4,22.7,30.20,NW,323,0.0,0.0,51,0.00,,,-99.99,Weather View 32 v60,2013-12-08 03:09:00,
2013-12-07 19:19:00,38.7,22.5,30.20,NW,315,0.0,0.0,52,0.00,,,-99.99,Weather View 32 v60,2013-12-08 03:19:00,
2013-12-07 19:29:00,38.1,22.5,30.20,NW,318,0.0,0.0,53,0.00,,,-99.99,Weather View 32 v60,2013-12-08 03:29:00,
2013-12-07 19:39:00,37.6,22.0,30.20,NW,318,0.0,0.0,53,0.00,,,-99.99,Weather View 32 v60,2013-12-08 03:39:00,
2013-12-07 19:49:00,36.9,22.2,30.20,NW,318,0.0,0.0,55,0.00,,,-99.99,Weather View 32 v60,2013-12-08 03:49:00,
2013-12-07 19:59:00,36.5,23.5,30.20,NW,324,0.0,0.0,59,0.00,,,-99.99,Weather View 32 v60,2013-12-08 03:59:00,
2013-12-07 20:10:00,36.1,24.0,30.20,NW,324,0.0,0.0,61,0.00,,,-99.99,Weather View 32 v60,2013-12-08 04:10:00,
2013-12-07 20:19:00,35.8,23.6,30.20,NW,324,0.0,0.0,61,0.00,,,-99.99,Weather View 32 v60,2013-12-08 04:19:00,
2013-12-07 20:29:00,35.4,23.3,30.20,NW,324,0.0,0.0,61,0.00,,,-99.99,Weather View 32 v60,2013-12-08 04:29:00,
2013-12-07 20:39:00,35.1,23.7,30.20,NW,324,0.0,0.0,63,0.00,,,-99.99,Weather View 32 v60,2013-12-08 04:39:00,
2013-12-07 20:49:00,34.9,24.3,30.20,NW,324,0.0,0.0,65,0.00,,,-99.99,Weather View 32 v60,2013-12-08 04:49:00,
2013-12-07 20:59:00,34.5,24.3,30.23,NW,323,0.0,0.0,66,0.00,,,-99.99,Weather View 32 v60,2013-12-08 04:59:00,
2013-12-07 21:09:00,34.0,24.2,30.23,NW,324,0.0,0.0,67,0.00,,,-99.99,Weather View 32 v60,2013-12-08 05:09:00,
2013-12-07 21:10:00,34.0,24.2,30.23,NW,324,0.0,0.0,67,0.00,,,-99.99,Weather View 32 v60,2013-12-08 05:10:00,
2013-12-07 21:19:00,33.8,25.0,30.20,NE,55,0.0,0.0,70,0.00,,,-99.99,Weather View 32 v60,2013-12-08 05:19:00,
2013-12-07 21:29:00,33.6,25.2,30.20,NE,55,0.0,0.0,71,0.00,,,-99.99,Weather View 32 v60,2013-12-08 05:29:00,
2013-12-07 21:39:00,33.3,25.5,30.20,NE,55,0.0,0.0,73,0.00,,,-99.99,Weather View 32 v60,2013-12-08 05:39:00,
2013-12-07 21:49:00,32.9,25.2,30.23,NE,55,0.0,0.0,73,0.00,,,-99.99,Weather View 32 v60,2013-12-08 05:49:00,
2013-12-07 21:59:00,32.7,25.3,30.23,NE,55,0.0,0.0,74,0.00,,,-99.99,Weather View 32 v60,2013-12-08 05:59:00,
2013-12-07 22:09:00,32.5,25.5,30.23,NE,55,0.0,0.0,75,0.00,,,-99.99,Weather View 32 v60,2013-12-08 06:09:00,
2013-12-07 22:11:00,32.5,25.5,30.23,NE,55,0.0,0.0,75,0.00,,,-99.99,Weather View 32 v60,2013-12-08 06:11:00,
2013-12-07 22:19:00,32.5,25.8,30.23,NE,55,0.0,0.0,76,0.00,,,-99.99,Weather View 32 v60,2013-12-08 06:19:00,
2013-12-07 22:29:00,32.2,25.5,30.23,NE,55,0.0,0.0,76,0.00,,,-99.99,Weather View 32 v60,2013-12-08 06:29:00,
2013-12-07 22:39:00,32.2,25.5,30.23,NE,55,0.0,0.0,76,0.00,,,-99.99,Weather View 32 v60,2013-12-08 06:39:00,
2013-12-07 22:49:00,31.8,25.1,30.23,NE,55,0.0,0.0,76,0.00,,,-99.99,Weather View 32 v60,2013-12-08 06:49:00,
2013-12-07 22:59:00,31.5,25.1,30.23,NE,55,0.0,0.0,77,0.00,,,-99.99,Weather View 32 v60,2013-12-08 06:59:00,
2013-12-07 23:09:00,31.5,25.4,30.23,NE,55,0.0,0.0,78,0.00,,,-99.99,Weather View 32 v60,2013-12-08 07:09:00,
2013-12-07 23:19:00,31.1,25.0,30.23,NE,55,0.0,0.0,78,0.00,,,-99.99,Weather View 32 v60,2013-12-08 07:19:00,
2013-12-07 23:29:00,30.6,24.8,30.26,NE,55,0.0,0.0,79,0.00,,,-99.99,Weather View 32 v60,2013-12-08 07:29:00,
2013-12-07 23:39:00,30.4,24.6,30.26,NE,55,0.0,0.0,79,0.00,,,-99.99,Weather View 32 v60,2013-12-08 07:39:00,
2013-12-07 23:49:00,30.2,24.5,30.26,NE,55,0.0,0.0,79,0.00,,,-99.99,Weather View 32 v60,2013-12-08 07:49:00,
2013-12-07 23:59:00,30.0,24.3,30.26,NE,55,0.0,0.0,79,0.00,,,-99.99,Weather View 32 v60,2013-12-08 07:59:00,